Time,TemperatureF,DewpointF,PressureIn,WindDirection,WindDirectionDegrees,WindSpeedMPH,WindSpeedGustMPH,Humidity,HourlyPrecipIn,Conditions,Clouds,dailyrainin,SoftwareType,DateUTC
2013-01-08 00:02:00,30.3,26.9,30.52,NNW,340,1.0,3.0,87,0.00,,,0.00,WeatherTracker,2013-01-08 08:02:00,
2013-01-08 00:07:00,30.3,26.6,30.53,NNW,340,3.0,3.0,86,0.00,,,0.00,WeatherTracker,2013-01-08 08:07:00,
2013-01-08 00:12:00,30.4,26.7,30.53,NNW,340,3.0,3.0,86,0.00,,,0.00,WeatherTracker,2013-01-08 08:12:00,
2013-01-08 00:18:00,30.1,26.7,30.53,NNW,340,0.0,3.0,87,0.00,,,0.00,WeatherTracker,2013-01-08 08:18:00,
2013-01-08 00:23:00,30.1,26.7,30.53,NNW,340,0.0,3.0,87,0.00,,,0.00,WeatherTracker,2013-01-08 08:23:00,
2013-01-08 00:28:00,30.2,26.8,30.53,NNW,340,0.0,0.0,87,0.00,,,0.00,WeatherTracker,2013-01-08 08:28:00,
2013-01-08 00:33:00,30.2,26.8,30.53,NNW,340,1.0,2.0,87,0.00,,,0.00,WeatherTracker,2013-01-08 08:33:00,
2013-01-08 00:38:00,30.1,26.7,30.53,NNW,346,2.0,2.0,87,0.00,,,0.00,WeatherTracker,2013-01-08 08:38:00,
2013-01-08 00:43:00,29.8,26.7,30.53,NNE,24,3.0,3.0,88,0.00,,,0.00,WeatherTracker,2013-01-08 08:43:00,
2013-01-08 00:48:00,29.5,26.4,30.53,East,98,3.0,4.0,88,0.00,,,0.00,WeatherTracker,2013-01-08 08:48:00,
2013-01-08 00:53:00,29.5,26.4,30.53,SSE,155,5.0,5.0,88,0.00,,,0.00,WeatherTracker,2013-01-08 08:53:00,
2013-01-08 00:58:00,29.3,26.2,30.52,SSE,155,2.0,6.0,88,0.00,,,0.00,WeatherTracker,2013-01-08 08:58:00,
2013-01-08 01:03:00,28.7,25.3,30.52,SSE,155,2.0,6.0,87,0.00,,,0.00,WeatherTracker,2013-01-08 09:03:00,
2013-01-08 01:08:00,28.7,25.3,30.52,SSE,155,2.0,5.0,87,0.00,,,0.00,WeatherTracker,2013-01-08 09:08:00,
2013-01-08 01:13:00,28.8,25.7,30.52,SSE,155,0.0,4.0,88,0.00,,,0.00,WeatherTracker,2013-01-08 09:13:00,
2013-01-08 01:18:00,28.9,25.5,30.52,SSE,155,1.0,3.0,87,0.00,,,0.00,WeatherTracker,2013-01-08 09:18:00,
2013-01-08 01:23:00,28.5,25.1,30.52,SSE,155,1.0,1.0,87,0.00,,,0.00,WeatherTracker,2013-01-08 09:23:00,
2013-01-08 01:29:00,28.1,24.5,30.52,SSE,155,0.0,2.0,86,0.00,,,0.00,WeatherTracker,2013-01-08 09:29:00,
2013-01-08 01:34:00,27.6,24.0,30.51,SSE,155,0.0,2.0,86,0.00,,,0.00,WeatherTracker,2013-01-08 09:34:00,
2013-01-08 01:39:00,27.1,23.2,30.51,SSE,155,0.0,2.0,85,0.00,,,0.00,WeatherTracker,2013-01-08 09:39:00,
2013-01-08 01:44:00,26.5,23.2,30.51,SSE,155,0.0,0.0,87,0.00,,,0.00,WeatherTracker,2013-01-08 09:44:00,
2013-01-08 01:49:00,26.3,23.5,30.52,SSE,155,2.0,0.0,89,0.00,,,0.00,WeatherTracker,2013-01-08 09:49:00,
2013-01-08 01:54:00,25.5,22.2,30.51,SSE,155,1.0,3.0,87,0.00,,,0.00,WeatherTracker,2013-01-08 09:54:00,
2013-01-08 01:59:00,24.6,21.3,30.52,SSE,155,2.0,4.0,87,0.00,,,0.00,WeatherTracker,2013-01-08 09:59:00,
2013-01-08 02:04:00,24.2,21.2,30.52,SSE,155,1.0,4.0,88,0.00,,,0.00,WeatherTracker,2013-01-08 10:04:00,
2013-01-08 02:09:00,24.2,21.4,30.51,SSE,155,0.0,3.0,89,0.00,,,0.00,WeatherTracker,2013-01-08 10:09:00,
2013-01-08 02:14:00,24.1,21.3,30.52,SSE,155,2.0,3.0,89,0.00,,,0.00,WeatherTracker,2013-01-08 10:14:00,
2013-01-08 02:19:00,24.0,21.5,30.51,SSE,155,0.0,3.0,90,0.00,,,0.00,WeatherTracker,2013-01-08 10:19:00,
2013-01-08 02:24:00,23.0,20.0,30.51,SSE,155,0.0,3.0,88,0.00,,,0.00,WeatherTracker,2013-01-08 10:24:00,
2013-01-08 02:29:00,22.5,19.8,30.52,SSE,155,0.0,2.0,89,0.00,,,0.00,WeatherTracker,2013-01-08 10:29:00,
2013-01-08 02:34:00,22.3,19.8,30.51,SSE,155,0.0,1.0,90,0.00,,,0.00,WeatherTracker,2013-01-08 10:34:00,
2013-01-08 02:39:00,22.8,20.6,30.51,SSE,155,0.0,0.0,91,0.00,,,0.00,WeatherTracker,2013-01-08 10:39:00,
2013-01-08 02:44:00,24.1,22.4,30.51,SSE,155,3.0,0.0,93,0.00,,,0.00,WeatherTracker,2013-01-08 10:44:00,
2013-01-08 02:50:00,24.9,23.2,30.51,SSE,155,0.0,3.0,93,0.00,,,0.00,WeatherTracker,2013-01-08 10:50:00,
2013-01-08 02:55:00,24.6,22.6,30.51,SSE,155,0.0,3.0,92,0.00,,,0.00,WeatherTracker,2013-01-08 10:55:00,
2013-01-08 03:00:00,24.7,22.7,30.51,SSE,155,0.0,1.0,92,0.00,,,0.00,WeatherTracker,2013-01-08 11:00:00,
2013-01-08 03:05:00,24.7,22.7,30.51,SSE,155,0.0,1.0,92,0.00,,,0.00,WeatherTracker,2013-01-08 11:05:00,
2013-01-08 03:10:00,24.6,22.6,30.51,SSE,155,0.0,1.0,92,0.00,,,0.00,WeatherTracker,2013-01-08 11:10:00,
2013-01-08 03:15:00,24.3,22.1,30.51,SSE,155,0.0,0.0,91,0.00,,,0.00,WeatherTracker,2013-01-08 11:15:00,
2013-01-08 03:20:00,23.8,21.3,30.51,SSE,155,0.0,0.0,90,0.00,,,0.00,WeatherTracker,2013-01-08 11:20:00,
2013-01-08 03:25:00,23.4,20.9,30.50,SSE,155,0.0,0.0,90,0.00,,,0.00,WeatherTracker,2013-01-08 11:25:00,
2013-01-08 03:30:00,23.1,20.6,30.51,SSE,155,0.0,0.0,90,0.00,,,0.00,WeatherTracker,2013-01-08 11:30:00,
2013-01-08 03:35:00,21.7,18.2,30.51,SSE,155,0.0,0.0,86,0.00,,,0.00,WeatherTracker,2013-01-08 11:35:00,
2013-01-08 03:40:00,20.5,17.3,30.51,SSE,155,0.0,0.0,87,0.00,,,0.00,WeatherTracker,2013-01-08 11:40:00,
2013-01-08 03:45:00,19.6,16.6,30.51,SSE,155,0.0,0.0,88,0.00,,,0.00,WeatherTracker,2013-01-08 11:45:00,
2013-01-08 03:50:00,19.5,16.8,30.51,SSE,155,0.0,0.0,89,0.00,,,0.00,WeatherTracker,2013-01-08 11:50:00,
2013-01-08 03:55:00,19.7,17.5,30.51,SSE,155,0.0,0.0,91,0.00,,,0.00,WeatherTracker,2013-01-08 11:55:00,
2013-01-08 04:00:00,19.7,17.3,30.51,SSE,155,0.0,0.0,90,0.00,,,0.00,WeatherTracker,2013-01-08 12:00:00,
2013-01-08 04:05:00,19.3,16.9,30.52,SSE,155,0.0,0.0,90,0.00,,,0.00,WeatherTracker,2013-01-08 12:05:00,
2013-01-08 04:10:00,19.2,17.0,30.52,SSE,155,0.0,0.0,91,0.00,,,0.00,WeatherTracker,2013-01-08 12:10:00,
2013-01-08 04:15:00,19.4,17.2,30.52,SSE,155,0.0,0.0,91,0.00,,,0.00,WeatherTracker,2013-01-08 12:15:00,
2013-01-08 04:20:00,19.7,17.8,30.52,SSE,155,2.0,2.0,92,0.00,,,0.00,WeatherTracker,2013-01-08 12:20:00,
2013-01-08 04:25:00,20.2,18.3,30.52,SSE,155,2.0,2.0,92,0.00,,,0.00,WeatherTracker,2013-01-08 12:25:00,
2013-01-08 04:30:00,21.1,19.4,30.52,SSE,155,2.0,4.0,93,0.00,,,0.00,WeatherTracker,2013-01-08 12:30:00,
2013-01-08 04:35:00,20.8,19.1,30.52,SE,142,6.0,7.0,93,0.00,,,0.00,WeatherTracker,2013-01-08 12:35:00,
2013-01-08 04:40:00,20.6,18.7,30.52,SE,138,2.0,7.0,92,0.00,,,0.00,WeatherTracker,2013-01-08 12:40:00,
2013-01-08 04:45:00,19.7,17.5,30.51,SE,131,3.0,7.0,91,0.00,,,0.00,WeatherTracker,2013-01-08 12:45:00,
2013-01-08 04:50:00,19.8,17.9,30.51,SE,132,4.0,5.0,92,0.00,,,0.00,WeatherTracker,2013-01-08 12:50:00,
2013-01-08 04:55:00,19.9,18.0,30.51,SE,128,4.0,5.0,92,0.00,,,0.00,WeatherTracker,2013-01-08 12:55:00,
2013-01-08 05:00:00,20.4,18.7,30.51,SE,135,4.0,5.0,93,0.00,,,0.00,WeatherTracker,2013-01-08 13:00:00,
2013-01-08 05:05:00,22.6,20.9,30.51,SE,136,1.0,5.0,93,0.00,,,0.00,WeatherTracker,2013-01-08 13:05:00,
2013-01-08 05:10:00,23.6,22.1,30.51,SE,137,1.0,4.0,94,0.00,,,0.00,WeatherTracker,2013-01-08 13:10:00,
2013-01-08 05:16:00,23.4,21.9,30.51,SE,136,1.0,4.0,94,0.00,,,0.00,WeatherTracker,2013-01-08 13:16:00,
2013-01-08 05:21:00,21.9,19.9,30.51,SE,136,0.0,3.0,92,0.00,,,0.00,WeatherTracker,2013-01-08 13:21:00,
2013-01-08 05:26:00,20.8,18.3,30.51,SE,136,0.0,1.0,90,0.00,,,0.00,WeatherTracker,2013-01-08 13:26:00,
2013-01-08 05:31:00,20.0,17.5,30.51,SE,136,0.0,0.0,90,0.00,,,0.00,WeatherTracker,2013-01-08 13:31:00,
2013-01-08 05:36:00,19.7,17.3,30.51,SE,137,1.0,2.0,90,0.00,,,0.00,WeatherTracker,2013-01-08 13:36:00,
2013-01-08 05:41:00,19.7,17.5,30.51,SE,137,0.0,2.0,91,0.00,,,0.00,WeatherTracker,2013-01-08 13:41:00,
2013-01-08 05:46:00,19.7,17.5,30.51,SE,136,0.0,2.0,91,0.00,,,0.00,WeatherTracker,2013-01-08 13:46:00,
2013-01-08 05:51:00,19.2,16.8,30.51,SE,136,0.0,0.0,90,0.00,,,0.00,WeatherTracker,2013-01-08 13:51:00,
2013-01-08 05:56:00,19.2,17.0,30.51,SE,136,1.0,0.0,91,0.00,,,0.00,WeatherTracker,2013-01-08 13:56:00,
2013-01-08 06:01:00,18.9,16.5,30.51,SE,136,4.0,4.0,90,0.00,,,0.00,WeatherTracker,2013-01-08 14:01:00,
2013-01-08 06:06:00,18.4,16.0,30.51,SE,136,0.0,4.0,90,0.00,,,0.00,WeatherTracker,2013-01-08 14:06:00,
2013-01-08 06:11:00,17.1,14.2,30.50,East,87,2.0,4.0,88,0.00,,,0.00,WeatherTracker,2013-01-08 14:11:00,
2013-01-08 06:16:00,16.8,13.9,30.50,East,87,2.0,2.0,88,0.00,,,0.00,WeatherTracker,2013-01-08 14:16:00,
2013-01-08 06:21:00,16.9,14.0,30.50,East,87,1.0,2.0,88,0.00,,,0.00,WeatherTracker,2013-01-08 14:21:00,
2013-01-08 06:26:00,17.0,14.1,30.51,East,87,1.0,2.0,88,0.00,,,0.00,WeatherTracker,2013-01-08 14:26:00,
2013-01-08 06:31:00,16.6,13.7,30.51,East,87,2.0,2.0,88,0.00,,,0.00,WeatherTracker,2013-01-08 14:31:00,
2013-01-08 06:36:00,16.4,13.5,30.51,East,87,0.0,2.0,88,0.00,,,0.00,WeatherTracker,2013-01-08 14:36:00,
2013-01-08 06:42:00,16.1,13.2,30.51,East,87,0.0,2.0,88,0.00,,,0.00,WeatherTracker,2013-01-08 14:42:00,
2013-01-08 06:47:00,16.7,13.8,30.51,East,87,2.0,2.0,88,0.00,,,0.00,WeatherTracker,2013-01-08 14:47:00,
2013-01-08 06:52:00,17.8,15.1,30.51,East,87,0.0,2.0,89,0.00,,,0.00,WeatherTracker,2013-01-08 14:52:00,
2013-01-08 06:57:00,18.0,15.3,30.51,East,87,0.0,2.0,89,0.00,,,0.00,WeatherTracker,2013-01-08 14:57:00,
2013-01-08 07:02:00,17.7,15.0,30.51,East,87,0.0,0.0,89,0.00,,,0.00,WeatherTracker,2013-01-08 15:02:00,
2013-01-08 07:07:00,17.7,15.0,30.52,East,87,2.0,0.0,89,0.00,,,0.00,WeatherTracker,2013-01-08 15:07:00,
2013-01-08 07:12:00,17.6,14.9,30.52,East,87,0.0,2.0,89,0.00,,,0.00,WeatherTracker,2013-01-08 15:12:00,
2013-01-08 07:17:00,17.9,15.2,30.52,East,87,2.0,2.0,89,0.00,,,0.00,WeatherTracker,2013-01-08 15:17:00,
2013-01-08 07:22:00,17.9,15.2,30.52,East,87,0.0,2.0,89,0.00,,,0.00,WeatherTracker,2013-01-08 15:22:00,
2013-01-08 07:27:00,17.9,15.2,30.52,East,87,0.0,2.0,89,0.00,,,0.00,WeatherTracker,2013-01-08 15:27:00,
2013-01-08 07:32:00,17.9,15.2,30.52,East,87,0.0,0.0,89,0.00,,,0.00,WeatherTracker,2013-01-08 15:32:00,
2013-01-08 07:37:00,17.5,14.8,30.52,East,87,2.0,3.0,89,0.00,,,0.00,WeatherTracker,2013-01-08 15:37:00,
2013-01-08 07:42:00,16.7,13.8,30.52,East,87,0.0,3.0,88,0.00,,,0.00,WeatherTracker,2013-01-08 15:42:00,
2013-01-08 07:47:00,16.0,13.1,30.52,East,87,0.0,3.0,88,0.00,,,0.00,WeatherTracker,2013-01-08 15:47:00,
2013-01-08 07:52:00,14.1,11.0,30.52,East,87,2.0,3.0,87,0.00,,,0.00,WeatherTracker,2013-01-08 15:52:00,
2013-01-08 07:57:00,14.2,11.3,30.52,East,87,2.0,3.0,88,0.00,,,0.00,WeatherTracker,2013-01-08 15:57:00,
2013-01-08 08:02:00,15.1,12.2,30.52,East,87,1.0,3.0,88,0.00,,,0.00,WeatherTracker,2013-01-08 16:02:00,
2013-01-08 08:07:00,14.7,11.8,30.53,East,87,3.0,4.0,88,0.00,,,0.00,WeatherTracker,2013-01-08 16:07:00,
2013-01-08 08:12:00,14.7,11.8,30.53,East,87,2.0,5.0,88,0.00,,,0.00,WeatherTracker,2013-01-08 16:12:00,
2013-01-08 08:17:00,16.2,13.3,30.53,East,87,1.0,5.0,88,0.00,,,0.00,WeatherTracker,2013-01-08 16:17:00,
2013-01-08 08:22:00,17.3,14.6,30.53,East,87,2.0,3.0,89,0.00,,,0.00,WeatherTracker,2013-01-08 16:22:00,
2013-01-08 08:27:00,18.9,16.2,30.53,East,87,3.0,3.0,89,0.00,,,0.00,WeatherTracker,2013-01-08 16:27:00,
2013-01-08 08:32:00,19.8,17.1,30.54,East,87,0.0,3.0,89,0.00,,,0.00,WeatherTracker,2013-01-08 16:32:00,
2013-01-08 08:37:00,19.9,17.2,30.54,East,87,2.0,3.0,89,0.00,,,0.00,WeatherTracker,2013-01-08 16:37:00,
2013-01-08 08:42:00,19.8,17.1,30.53,East,87,0.0,3.0,89,0.00,,,0.00,WeatherTracker,2013-01-08 16:42:00,
2013-01-08 08:47:00,20.1,17.4,30.53,East,87,0.0,3.0,89,0.00,,,0.00,WeatherTracker,2013-01-08 16:47:00,
2013-01-08 08:52:00,21.5,18.8,30.53,East,87,1.0,2.0,89,0.00,,,0.00,WeatherTracker,2013-01-08 16:52:00,
2013-01-08 08:57:00,22.5,20.0,30.53,East,87,0.0,2.0,90,0.00,,,0.00,WeatherTracker,2013-01-08 16:57:00,
2013-01-08 09:02:00,23.6,21.1,30.52,East,87,0.0,2.0,90,0.00,,,0.00,WeatherTracker,2013-01-08 17:02:00,
2013-01-08 09:07:00,24.9,22.4,30.52,East,87,0.0,1.0,90,0.00,,,0.00,WeatherTracker,2013-01-08 17:07:00,
2013-01-08 09:12:00,25.6,23.1,30.52,East,87,0.0,0.0,90,0.00,,,0.00,WeatherTracker,2013-01-08 17:12:00,
2013-01-08 09:17:00,26.2,23.7,30.52,East,87,0.0,0.0,90,0.00,,,0.00,WeatherTracker,2013-01-08 17:17:00,
2013-01-08 09:22:00,27.0,24.5,30.52,East,87,0.0,0.0,90,0.00,,,0.00,WeatherTracker,2013-01-08 17:22:00,
2013-01-08 09:27:00,25.6,23.1,30.52,East,87,0.0,3.0,90,0.00,,,0.00,WeatherTracker,2013-01-08 17:27:00,
2013-01-08 09:32:00,25.7,23.2,30.52,East,87,0.0,3.0,90,0.00,,,0.00,WeatherTracker,2013-01-08 17:32:00,
2013-01-08 09:38:00,26.5,24.2,30.53,East,87,1.0,2.0,91,0.00,,,0.00,WeatherTracker,2013-01-08 17:38:00,
2013-01-08 09:43:00,26.5,24.2,30.53,East,87,3.0,3.0,91,0.00,,,0.00,WeatherTracker,2013-01-08 17:43:00,
2013-01-08 09:48:00,26.1,23.6,30.53,East,87,3.0,5.0,90,0.00,,,0.00,WeatherTracker,2013-01-08 17:48:00,
2013-01-08 09:53:00,25.7,23.2,30.53,East,87,3.0,5.0,90,0.00,,,0.00,WeatherTracker,2013-01-08 17:53:00,
2013-01-08 09:58:00,25.6,23.1,30.53,East,88,2.0,4.0,90,0.00,,,0.00,WeatherTracker,2013-01-08 17:58:00,
2013-01-08 10:03:00,25.9,23.6,30.52,East,88,3.0,5.0,91,0.00,,,0.00,WeatherTracker,2013-01-08 18:03:00,
2013-01-08 10:08:00,26.3,23.8,30.52,East,88,0.0,5.0,90,0.00,,,0.00,WeatherTracker,2013-01-08 18:08:00,
2013-01-08 10:13:00,26.8,24.5,30.52,East,88,0.0,4.0,91,0.00,,,0.00,WeatherTracker,2013-01-08 18:13:00,
2013-01-08 10:18:00,27.2,24.9,30.52,East,87,0.0,2.0,91,0.00,,,0.00,WeatherTracker,2013-01-08 18:18:00,
2013-01-08 10:23:00,27.8,25.5,30.52,East,88,0.0,2.0,91,0.00,,,0.00,WeatherTracker,2013-01-08 18:23:00,
2013-01-08 10:28:00,28.5,26.2,30.52,East,88,1.0,1.0,91,0.00,,,0.00,WeatherTracker,2013-01-08 18:28:00,
2013-01-08 10:33:00,28.7,26.4,30.52,East,87,1.0,2.0,91,0.00,,,0.00,WeatherTracker,2013-01-08 18:33:00,
2013-01-08 10:38:00,28.2,25.9,30.51,East,88,2.0,3.0,91,0.00,,,0.00,WeatherTracker,2013-01-08 18:38:00,
2013-01-08 10:43:00,28.4,26.1,30.50,East,89,0.0,4.0,91,0.00,,,0.00,WeatherTracker,2013-01-08 18:43:00,
2013-01-08 10:48:00,29.2,26.9,30.50,East,89,1.0,4.0,91,0.00,,,0.00,WeatherTracker,2013-01-08 18:48:00,
2013-01-08 10:53:00,30.0,27.7,30.50,East,89,0.0,2.0,91,0.00,,,0.00,WeatherTracker,2013-01-08 18:53:00,
2013-01-08 10:58:00,30.5,28.2,30.50,East,88,2.0,2.0,91,0.00,,,0.00,WeatherTracker,2013-01-08 18:58:00,
2013-01-08 11:03:00,30.9,28.6,30.49,East,88,2.0,2.0,91,0.00,,,0.00,WeatherTracker,2013-01-08 19:03:00,
2013-01-08 11:08:00,31.3,29.0,30.48,East,89,0.0,3.0,91,0.00,,,0.00,WeatherTracker,2013-01-08 19:08:00,
2013-01-08 11:13:00,32.3,29.7,30.48,East,88,0.0,3.0,90,0.00,,,0.00,WeatherTracker,2013-01-08 19:13:00,
2013-01-08 11:18:00,33.2,30.3,30.47,East,89,0.0,3.0,89,0.00,,,0.00,WeatherTracker,2013-01-08 19:18:00,
2013-01-08 11:23:00,34.2,31.0,30.47,East,89,2.0,2.0,88,0.00,,,0.00,WeatherTracker,2013-01-08 19:23:00,
2013-01-08 11:28:00,34.7,30.9,30.46,East,89,0.0,3.0,86,0.00,,,0.00,WeatherTracker,2013-01-08 19:28:00,
2013-01-08 11:33:00,35.5,30.9,30.46,East,89,1.0,3.0,83,0.00,,,0.00,WeatherTracker,2013-01-08 19:33:00,
2013-01-08 11:38:00,36.1,30.5,30.46,East,88,2.0,3.0,80,0.00,,,0.00,WeatherTracker,2013-01-08 19:38:00,
2013-01-08 11:43:00,37.0,30.5,30.45,East,88,0.0,3.0,77,0.00,,,0.00,WeatherTracker,2013-01-08 19:43:00,
2013-01-08 11:48:00,36.8,29.6,30.45,East,89,2.0,3.0,75,0.00,,,0.00,WeatherTracker,2013-01-08 19:48:00,
2013-01-08 11:53:00,35.8,29.0,30.45,East,88,2.0,4.0,76,0.00,,,0.00,WeatherTracker,2013-01-08 19:53:00,
2013-01-08 11:58:00,35.8,29.0,30.44,East,89,0.0,4.0,76,0.00,,,0.00,WeatherTracker,2013-01-08 19:58:00,
2013-01-08 12:03:00,36.6,29.8,30.44,East,89,0.0,4.0,76,0.00,,,0.00,WeatherTracker,2013-01-08 20:03:00,
2013-01-08 12:08:00,38.1,30.6,30.43,East,89,0.0,2.0,74,0.00,,,0.00,WeatherTracker,2013-01-08 20:08:00,
2013-01-08 12:14:00,39.2,30.9,30.43,East,89,0.0,1.0,72,0.00,,,0.00,WeatherTracker,2013-01-08 20:14:00,
2013-01-08 12:19:00,40.1,31.5,30.42,East,89,0.0,3.0,71,0.00,,,0.00,WeatherTracker,2013-01-08 20:19:00,
2013-01-08 12:24:00,40.7,31.7,30.42,East,89,0.0,3.0,70,0.00,,,0.00,WeatherTracker,2013-01-08 20:24:00,
2013-01-08 12:29:00,40.9,31.5,30.42,East,89,2.0,2.0,69,0.00,,,0.00,WeatherTracker,2013-01-08 20:29:00,
2013-01-08 12:34:00,40.8,31.4,30.42,East,89,0.0,3.0,69,0.00,,,0.00,WeatherTracker,2013-01-08 20:34:00,
2013-01-08 12:39:00,40.9,31.9,30.41,East,89,0.0,3.0,70,0.00,,,0.00,WeatherTracker,2013-01-08 20:39:00,
2013-01-08 12:44:00,41.1,31.7,30.41,East,89,3.0,3.0,69,0.00,,,0.00,WeatherTracker,2013-01-08 20:44:00,
2013-01-08 12:49:00,40.6,30.9,30.41,East,89,2.0,3.0,68,0.00,,,0.00,WeatherTracker,2013-01-08 20:49:00,
2013-01-08 12:54:00,40.2,30.9,30.41,East,89,1.0,4.0,69,0.00,,,0.00,WeatherTracker,2013-01-08 20:54:00,
2013-01-08 12:59:00,40.2,31.2,30.41,East,88,2.0,4.0,70,0.00,,,0.00,WeatherTracker,2013-01-08 20:59:00,
2013-01-08 13:04:00,40.4,31.4,30.41,East,89,0.0,4.0,70,0.00,,,0.00,WeatherTracker,2013-01-08 21:04:00,
2013-01-08 13:09:00,40.5,31.1,30.40,East,89,1.0,3.0,69,0.00,,,0.00,WeatherTracker,2013-01-08 21:09:00,
2013-01-08 13:14:00,40.6,31.6,30.40,East,88,2.0,3.0,70,0.00,,,0.00,WeatherTracker,2013-01-08 21:14:00,
2013-01-08 13:19:00,40.8,31.8,30.39,East,90,2.0,3.0,70,0.00,,,0.00,WeatherTracker,2013-01-08 21:19:00,
2013-01-08 13:24:00,40.6,30.9,30.39,East,90,3.0,3.0,68,0.00,,,0.00,WeatherTracker,2013-01-08 21:24:00,
2013-01-08 13:29:00,40.1,31.1,30.39,East,91,2.0,3.0,70,0.00,,,0.00,WeatherTracker,2013-01-08 21:29:00,
2013-01-08 13:34:00,40.2,31.2,30.39,East,91,3.0,4.0,70,0.00,,,0.00,WeatherTracker,2013-01-08 21:34:00,
2013-01-08 13:40:00,40.1,31.1,30.39,East,90,3.0,4.0,70,0.00,,,0.00,WeatherTracker,2013-01-08 21:40:00,
2013-01-08 13:45:00,40.1,31.1,30.39,WSW,238,2.0,5.0,70,0.00,,,0.00,WeatherTracker,2013-01-08 21:45:00,
2013-01-08 13:50:00,40.3,31.7,30.39,WSW,237,2.0,5.0,71,0.00,,,0.00,WeatherTracker,2013-01-08 21:50:00,
2013-01-08 13:55:00,40.7,31.3,30.39,WSW,238,2.0,4.0,69,0.00,,,0.00,WeatherTracker,2013-01-08 21:55:00,
2013-01-08 14:00:00,41.1,31.4,30.39,WSW,237,2.0,3.0,68,0.00,,,0.00,WeatherTracker,2013-01-08 22:00:00,
2013-01-08 14:05:00,41.2,31.8,30.39,WSW,238,0.0,3.0,69,0.00,,,0.00,WeatherTracker,2013-01-08 22:05:00,
2013-01-08 14:10:00,41.6,31.8,30.39,WSW,238,1.0,3.0,68,0.00,,,0.00,WeatherTracker,2013-01-08 22:10:00,
2013-01-08 14:15:00,41.8,31.7,30.39,WSW,238,2.0,4.0,67,0.00,,,0.00,WeatherTracker,2013-01-08 22:15:00,
2013-01-08 14:20:00,42.1,31.9,30.39,WSW,238,2.0,4.0,67,0.00,,,0.00,WeatherTracker,2013-01-08 22:20:00,
2013-01-08 14:25:00,42.3,32.1,30.39,WSW,238,2.0,4.0,67,0.00,,,0.00,WeatherTracker,2013-01-08 22:25:00,
2013-01-08 14:30:00,42.3,32.1,30.39,WSW,238,3.0,4.0,67,0.00,,,0.00,WeatherTracker,2013-01-08 22:30:00,
2013-01-08 14:35:00,42.3,32.1,30.39,WSW,238,0.0,4.0,67,0.00,,,0.00,WeatherTracker,2013-01-08 22:35:00,
2013-01-08 14:40:00,42.5,32.3,30.39,WSW,238,2.0,3.0,67,0.00,,,0.00,WeatherTracker,2013-01-08 22:40:00,
2013-01-08 14:45:00,42.6,32.4,30.39,WSW,238,1.0,3.0,67,0.00,,,0.00,WeatherTracker,2013-01-08 22:45:00,
2013-01-08 14:50:00,43.2,32.6,30.40,WSW,237,1.0,3.0,66,0.00,,,0.00,WeatherTracker,2013-01-08 22:50:00,
2013-01-08 14:55:00,43.6,32.6,30.40,WSW,237,1.0,3.0,65,0.00,,,0.00,WeatherTracker,2013-01-08 22:55:00,
2013-01-08 15:00:00,43.7,33.1,30.40,WSW,237,2.0,3.0,66,0.00,,,0.00,WeatherTracker,2013-01-08 23:00:00,
2013-01-08 15:05:00,43.3,32.0,30.41,WSW,238,2.0,3.0,64,0.00,,,0.00,WeatherTracker,2013-01-08 23:05:00,
2013-01-08 15:10:00,43.2,32.2,30.41,SW,229,3.0,4.0,65,0.00,,,0.00,WeatherTracker,2013-01-08 23:10:00,
2013-01-08 15:15:00,43.6,32.6,30.41,SW,229,2.0,4.0,65,0.00,,,0.00,WeatherTracker,2013-01-08 23:15:00,
2013-01-08 15:21:00,44.1,32.7,30.41,SW,229,0.0,4.0,64,0.00,,,0.00,WeatherTracker,2013-01-08 23:21:00,
2013-01-08 15:26:00,44.4,32.6,30.41,SW,229,2.0,3.0,63,0.00,,,0.00,WeatherTracker,2013-01-08 23:26:00,
2013-01-08 15:31:00,44.1,32.3,30.40,SW,229,1.0,3.0,63,0.00,,,0.00,WeatherTracker,2013-01-08 23:31:00,
2013-01-08 15:36:00,43.7,31.9,30.40,SW,229,1.0,3.0,63,0.00,,,0.00,WeatherTracker,2013-01-08 23:36:00,
2013-01-08 15:41:00,42.7,31.8,30.40,SW,229,0.0,2.0,65,0.00,,,0.00,WeatherTracker,2013-01-08 23:41:00,
2013-01-08 15:46:00,41.4,30.9,30.40,SW,229,1.0,2.0,66,0.00,,,0.00,WeatherTracker,2013-01-08 23:46:00,
2013-01-08 15:51:00,40.2,30.5,30.41,SW,229,0.0,2.0,68,0.00,,,0.00,WeatherTracker,2013-01-08 23:51:00,
2013-01-08 15:56:00,38.7,29.1,30.41,SW,229,1.0,2.0,68,0.00,,,0.00,WeatherTracker,2013-01-08 23:56:00,
2013-01-08 16:01:00,37.7,29.2,30.41,SW,229,2.0,2.0,71,0.00,,,0.00,WeatherTracker,2013-01-09 00:01:00,
2013-01-08 16:06:00,36.5,28.7,30.41,SW,221,3.0,3.0,73,0.00,,,0.00,WeatherTracker,2013-01-09 00:06:00,
2013-01-08 16:11:00,35.1,27.3,30.41,SE,125,3.0,3.0,73,0.00,,,0.00,WeatherTracker,2013-01-09 00:11:00,
2013-01-08 16:16:00,34.1,27.7,30.41,SE,125,3.0,4.0,77,0.00,,,0.00,WeatherTracker,2013-01-09 00:16:00,
2013-01-08 16:21:00,35.1,29.3,30.41,SE,124,3.0,4.0,79,0.00,,,0.00,WeatherTracker,2013-01-09 00:21:00,
2013-01-08 16:26:00,35.1,28.9,30.41,ESE,120,3.0,4.0,78,0.00,,,0.00,WeatherTracker,2013-01-09 00:26:00,
2013-01-08 16:31:00,34.8,28.3,30.41,ESE,118,0.0,4.0,77,0.00,,,0.00,WeatherTracker,2013-01-09 00:31:00,
2013-01-08 16:36:00,33.4,27.0,30.41,ESE,118,0.0,4.0,77,0.00,,,0.00,WeatherTracker,2013-01-09 00:36:00,
2013-01-08 16:42:00,32.9,27.1,30.41,ESE,118,0.0,3.0,79,0.00,,,0.00,WeatherTracker,2013-01-09 00:42:00,
2013-01-08 16:47:00,32.0,26.5,30.41,ESE,118,3.0,3.0,80,0.00,,,0.00,WeatherTracker,2013-01-09 00:47:00,
2013-01-08 16:52:00,30.8,25.7,30.41,ESE,118,0.0,4.0,81,0.00,,,0.00,WeatherTracker,2013-01-09 00:52:00,
2013-01-08 16:57:00,30.6,25.8,30.41,ESE,118,3.0,4.0,82,0.00,,,0.00,WeatherTracker,2013-01-09 00:57:00,
2013-01-08 17:02:00,29.7,24.9,30.41,ESE,118,3.0,4.0,82,0.00,,,0.00,WeatherTracker,2013-01-09 01:02:00,
2013-01-08 17:07:00,29.6,25.4,30.41,ESE,118,2.0,4.0,84,0.00,,,0.00,WeatherTracker,2013-01-09 01:07:00,
2013-01-08 17:12:00,30.7,26.7,30.41,East,86,2.0,4.0,85,0.00,,,0.00,WeatherTracker,2013-01-09 01:12:00,
2013-01-08 17:17:00,30.2,26.0,30.41,ENE,69,3.0,5.0,84,0.00,,,0.00,WeatherTracker,2013-01-09 01:17:00,
2013-01-08 17:22:00,29.6,25.1,30.41,ENE,72,1.0,5.0,83,0.00,,,0.00,WeatherTracker,2013-01-09 01:22:00,
2013-01-08 17:27:00,28.2,23.4,30.41,ENE,73,2.0,5.0,82,0.00,,,0.00,WeatherTracker,2013-01-09 01:27:00,
2013-01-08 17:32:00,27.9,23.7,30.41,ENE,73,2.0,4.0,84,0.00,,,0.00,WeatherTracker,2013-01-09 01:32:00,
2013-01-08 17:37:00,27.6,23.7,30.41,ENE,73,3.0,4.0,85,0.00,,,0.00,WeatherTracker,2013-01-09 01:37:00,
2013-01-08 17:42:00,27.8,24.2,30.41,ENE,73,2.0,4.0,86,0.00,,,0.00,WeatherTracker,2013-01-09 01:42:00,
2013-01-08 17:47:00,28.7,25.1,30.41,ENE,72,3.0,4.0,86,0.00,,,0.00,WeatherTracker,2013-01-09 01:47:00,
2013-01-08 17:52:00,29.2,25.5,30.41,ENE,73,2.0,4.0,86,0.00,,,0.00,WeatherTracker,2013-01-09 01:52:00,
2013-01-08 17:57:00,29.3,25.6,30.41,ENE,73,0.0,4.0,86,0.00,,,0.00,WeatherTracker,2013-01-09 01:57:00,
2013-01-08 18:02:00,29.2,25.5,30.41,ENE,73,0.0,3.0,86,0.00,,,0.00,WeatherTracker,2013-01-09 02:02:00,
2013-01-08 18:07:00,29.1,25.4,30.41,ENE,73,0.0,2.0,86,0.00,,,0.00,WeatherTracker,2013-01-09 02:07:00,
2013-01-08 18:12:00,29.0,25.3,30.41,ENE,73,0.0,2.0,86,0.00,,,0.00,WeatherTracker,2013-01-09 02:12:00,
2013-01-08 18:17:00,28.8,26.8,30.41,ENE,72,0.0,0.0,92,0.00,,,0.00,WeatherTracker,2013-01-09 02:17:00,
2013-01-08 18:22:00,28.5,24.9,30.41,ENE,73,0.0,0.0,86,0.00,,,0.00,WeatherTracker,2013-01-09 02:22:00,
2013-01-08 18:27:00,28.8,25.4,30.41,ENE,73,0.0,2.0,87,0.00,,,0.00,WeatherTracker,2013-01-09 02:27:00,
2013-01-08 18:32:00,29.1,25.7,30.41,ENE,72,1.0,2.0,87,0.00,,,0.00,WeatherTracker,2013-01-09 02:32:00,
2013-01-08 18:37:00,29.2,25.8,30.41,ENE,73,0.0,2.0,87,0.00,,,0.00,WeatherTracker,2013-01-09 02:37:00,
2013-01-08 18:43:00,29.0,25.6,30.41,ENE,73,0.0,2.0,87,0.00,,,0.00,WeatherTracker,2013-01-09 02:43:00,
2013-01-08 18:48:00,28.5,24.9,30.42,ENE,72,0.0,1.0,86,0.00,,,0.00,WeatherTracker,2013-01-09 02:48:00,
2013-01-08 18:53:00,28.0,24.4,30.42,ENE,73,0.0,0.0,86,0.00,,,0.00,WeatherTracker,2013-01-09 02:53:00,
2013-01-08 18:58:00,27.2,23.6,30.42,ENE,72,1.0,2.0,86,0.00,,,0.00,WeatherTracker,2013-01-09 02:58:00,
2013-01-08 19:03:00,26.7,23.1,30.42,ENE,72,0.0,4.0,86,0.00,,,0.00,WeatherTracker,2013-01-09 03:03:00,
2013-01-08 19:08:00,27.0,23.7,30.42,ENE,73,1.0,4.0,87,0.00,,,0.00,WeatherTracker,2013-01-09 03:08:00,
2013-01-08 19:13:00,27.1,24.0,30.42,ENE,73,3.0,3.0,88,0.00,,,0.00,WeatherTracker,2013-01-09 03:13:00,
2013-01-08 19:18:00,26.7,23.6,30.42,ENE,72,3.0,4.0,88,0.00,,,0.00,WeatherTracker,2013-01-09 03:18:00,
2013-01-08 19:23:00,26.7,23.6,30.41,ENE,74,3.0,4.0,88,0.00,,,0.00,WeatherTracker,2013-01-09 03:23:00,
2013-01-08 19:28:00,26.9,23.8,30.42,ENE,75,2.0,5.0,88,0.00,,,0.00,WeatherTracker,2013-01-09 03:28:00,
2013-01-08 19:33:00,26.1,23.0,30.42,ENE,74,0.0,5.0,88,0.00,,,0.00,WeatherTracker,2013-01-09 03:33:00,
2013-01-08 19:38:00,25.6,22.5,30.42,ENE,74,0.0,4.0,88,0.00,,,0.00,WeatherTracker,2013-01-09 03:38:00,
2013-01-08 19:43:00,25.7,22.6,30.42,ENE,74,0.0,2.0,88,0.00,,,0.00,WeatherTracker,2013-01-09 03:43:00,
2013-01-08 19:48:00,25.9,23.1,30.42,ENE,74,0.0,0.0,89,0.00,,,0.00,WeatherTracker,2013-01-09 03:48:00,
2013-01-08 19:53:00,26.2,23.4,30.42,ENE,74,0.0,0.0,89,0.00,,,0.00,WeatherTracker,2013-01-09 03:53:00,
2013-01-08 19:58:00,26.3,23.5,30.42,ENE,74,0.0,0.0,89,0.00,,,0.00,WeatherTracker,2013-01-09 03:58:00,
2013-01-08 20:03:00,26.2,23.4,30.42,ENE,74,0.0,0.0,89,0.00,,,0.00,WeatherTracker,2013-01-09 04:03:00,
2013-01-08 20:08:00,25.6,22.8,30.42,ENE,74,0.0,0.0,89,0.00,,,0.00,WeatherTracker,2013-01-09 04:08:00,
2013-01-08 20:13:00,25.1,22.3,30.43,ENE,74,2.0,0.0,89,0.00,,,0.00,WeatherTracker,2013-01-09 04:13:00,
2013-01-08 20:18:00,23.9,20.9,30.43,ENE,74,0.0,4.0,88,0.00,,,0.00,WeatherTracker,2013-01-09 04:18:00,
2013-01-08 20:23:00,23.3,20.3,30.43,ENE,74,0.0,4.0,88,0.00,,,0.00,WeatherTracker,2013-01-09 04:23:00,
2013-01-08 20:28:00,22.8,19.8,30.43,ENE,74,0.0,4.0,88,0.00,,,0.00,WeatherTracker,2013-01-09 04:28:00,
2013-01-08 20:33:00,22.3,19.3,30.43,ENE,74,2.0,4.0,88,0.00,,,0.00,WeatherTracker,2013-01-09 04:33:00,
2013-01-08 20:38:00,20.7,17.5,30.43,ENE,75,3.0,4.0,87,0.00,,,0.00,WeatherTracker,2013-01-09 04:38:00,
2013-01-08 20:43:00,21.4,18.4,30.43,ENE,76,2.0,4.0,88,0.00,,,0.00,WeatherTracker,2013-01-09 04:43:00,
2013-01-08 20:48:00,22.4,19.7,30.43,ENE,75,2.0,4.0,89,0.00,,,0.00,WeatherTracker,2013-01-09 04:48:00,
2013-01-08 20:53:00,23.5,21.0,30.43,ENE,76,1.0,4.0,90,0.00,,,0.00,WeatherTracker,2013-01-09 04:53:00,
2013-01-08 20:58:00,25.0,22.5,30.43,ENE,75,3.0,3.0,90,0.00,,,0.00,WeatherTracker,2013-01-09 04:58:00,
2013-01-08 21:00:00,25.2,22.7,30.43,ENE,76,3.0,4.0,90,0.00,,,0.00,WeatherTracker,2013-01-09 05:00:00,
2013-01-08 21:01:00,25.4,22.9,30.43,ENE,75,3.0,4.0,90,0.00,,,0.00,WeatherTracker,2013-01-09 05:01:00,
2013-01-08 21:06:00,24.7,22.2,30.43,ENE,76,2.0,4.0,90,0.00,,,0.00,WeatherTracker,2013-01-09 05:06:00,
2013-01-08 21:11:00,23.8,21.3,30.43,ENE,76,2.0,4.0,90,0.00,,,0.00,WeatherTracker,2013-01-09 05:11:00,
2013-01-08 21:16:00,23.6,21.1,30.43,ENE,76,1.0,4.0,90,0.00,,,0.00,WeatherTracker,2013-01-09 05:16:00,
2013-01-08 21:21:00,21.1,18.4,30.43,ENE,76,3.0,4.0,89,0.00,,,0.00,WeatherTracker,2013-01-09 05:21:00,
2013-01-08 21:26:00,21.4,18.7,30.43,ENE,76,0.0,4.0,89,0.00,,,0.00,WeatherTracker,2013-01-09 05:26:00,
2013-01-08 21:31:00,22.4,19.9,30.43,ENE,75,2.0,4.0,90,0.00,,,0.00,WeatherTracker,2013-01-09 05:31:00,
2013-01-08 21:36:00,22.6,20.1,30.43,ENE,76,0.0,3.0,90,0.00,,,0.00,WeatherTracker,2013-01-09 05:36:00,
2013-01-08 21:41:00,22.1,19.6,30.43,ENE,76,0.0,3.0,90,0.00,,,0.00,WeatherTracker,2013-01-09 05:41:00,
2013-01-08 21:46:00,21.5,19.0,30.43,ENE,75,2.0,3.0,90,0.00,,,0.00,WeatherTracker,2013-01-09 05:46:00,
2013-01-08 21:51:00,21.1,18.6,30.43,ENE,76,1.0,3.0,90,0.00,,,0.00,WeatherTracker,2013-01-09 05:51:00,
2013-01-08 21:56:00,21.1,18.6,30.43,ENE,76,2.0,3.0,90,0.00,,,0.00,WeatherTracker,2013-01-09 05:56:00,
2013-01-08 22:01:00,20.5,17.8,30.43,ENE,76,0.0,3.0,89,0.00,,,0.00,WeatherTracker,2013-01-09 06:01:00,
2013-01-08 22:06:00,19.9,17.2,30.43,ENE,76,0.0,3.0,89,0.00,,,0.00,WeatherTracker,2013-01-09 06:06:00,
2013-01-08 22:11:00,20.2,17.5,30.43,ENE,76,1.0,2.0,89,0.00,,,0.00,WeatherTracker,2013-01-09 06:11:00,
2013-01-08 22:16:00,20.7,18.0,30.43,ENE,76,0.0,2.0,89,0.00,,,0.00,WeatherTracker,2013-01-09 06:16:00,
2013-01-08 22:21:00,20.9,18.2,30.43,ENE,76,1.0,2.0,89,0.00,,,0.00,WeatherTracker,2013-01-09 06:21:00,
2013-01-08 22:27:00,20.9,18.2,30.43,ENE,76,0.0,2.0,89,0.00,,,0.00,WeatherTracker,2013-01-09 06:27:00,
2013-01-08 22:32:00,20.6,17.9,30.43,ENE,75,2.0,2.0,89,0.00,,,0.00,WeatherTracker,2013-01-09 06:32:00,
2013-01-08 22:37:00,20.1,17.4,30.43,ENE,75,2.0,3.0,89,0.00,,,0.00,WeatherTracker,2013-01-09 06:37:00,
2013-01-08 22:42:00,19.7,17.0,30.43,ESE,104,2.0,4.0,89,0.00,,,0.00,WeatherTracker,2013-01-09 06:42:00,
2013-01-08 22:47:00,20.0,17.3,30.42,SSW,203,3.0,4.0,89,0.00,,,0.00,WeatherTracker,2013-01-09 06:47:00,
2013-01-08 22:52:00,20.1,17.4,30.42,SSW,204,2.0,5.0,89,0.00,,,0.00,WeatherTracker,2013-01-09 06:52:00,
2013-01-08 22:57:00,20.2,17.7,30.42,SSW,203,0.0,5.0,90,0.00,,,0.00,WeatherTracker,2013-01-09 06:57:00,
2013-01-08 23:02:00,20.1,17.6,30.41,SSW,204,0.0,4.0,90,0.00,,,0.00,WeatherTracker,2013-01-09 07:02:00,
2013-01-08 23:07:00,20.1,17.4,30.41,SSW,204,0.0,2.0,89,0.00,,,0.00,WeatherTracker,2013-01-09 07:07:00,
2013-01-08 23:12:00,20.6,18.1,30.41,SSW,204,0.0,0.0,90,0.00,,,0.00,WeatherTracker,2013-01-09 07:12:00,
2013-01-08 23:17:00,21.6,19.1,30.42,SSW,204,0.0,0.0,90,0.00,,,0.00,WeatherTracker,2013-01-09 07:17:00,
2013-01-08 23:22:00,22.6,20.1,30.41,SSW,200,2.0,0.0,90,0.00,,,0.00,WeatherTracker,2013-01-09 07:22:00,
2013-01-08 23:27:00,21.0,18.5,30.41,SSW,200,0.0,3.0,90,0.00,,,0.00,WeatherTracker,2013-01-09 07:27:00,
2013-01-08 23:32:00,20.7,18.2,30.41,SSW,199,0.0,3.0,90,0.00,,,0.00,WeatherTracker,2013-01-09 07:32:00,
2013-01-08 23:37:00,20.8,18.3,30.41,SSW,199,0.0,2.0,90,0.00,,,0.00,WeatherTracker,2013-01-09 07:37:00,
2013-01-08 23:42:00,21.2,18.7,30.41,SSW,199,0.0,0.0,90,0.00,,,0.00,WeatherTracker,2013-01-09 07:42:00,
2013-01-08 23:48:00,21.7,19.2,30.41,SSW,200,0.0,0.0,90,0.00,,,0.00,WeatherTracker,2013-01-09 07:48:00,
2013-01-08 23:53:00,19.7,17.3,30.41,SSW,200,0.0,2.0,90,0.00,,,0.00,WeatherTracker,2013-01-09 07:53:00,
2013-01-08 23:58:00,19.1,16.7,30.41,SSW,199,0.0,3.0,90,0.00,,,0.00,WeatherTracker,2013-01-09 07:58:00,